FW5682 Weather Reports


time (UTC)temp
C
wind
direction
speed
KPH
gust
KPH
rain 1hr
cm
rain 24hr
cm
rain mn
cm
humidity
%
barometer
mb
20260508080753 11 209 1.6 4.8 0.00 0.00 0.00 83 1014.8
20260508075753 10 209 3.2 6.4 0.00 0.00 0.00 85 1014.7
20260508075254 10 209 3.2 4.8 0.00 0.00 0.00 85 1014.7
20260508074754 10 209 1.6 6.4 0.00 0.00 0.00 86 1014.5
20260508074253 10 209 3.2 6.4 0.00 0.00 0.00 86 1014.5
20260508074014 10 209 3.2 4.8 0.00 0.00 0.00 86 1014.5
20260508073520 10 209 3.2 4.8 0.00 0.00 0.00 86 1014.4
20260508072752 10 209 0.0 4.8 0.00 0.00 0.00 86 1014.4
20260508072252 10 209 1.6 4.8 0.00 0.00 0.00 86 1014.3
20260508071752 10 209 1.6 4.8 0.00 0.00 0.00 87 1014.3
20260508071252 10 209 0.0 6.4 0.00 0.00 0.00 88 1014.2
20260508070752 10 209 3.2 6.4 0.00 0.00 0.00 88 1014.1
20260508070518 10 209 1.6 3.2 0.00 0.00 0.00 89 1014.2
20260508065751 10 209 1.6 4.8 0.00 0.00 0.00 90 1014.1
20260508065252 10 209 1.6 4.8 0.00 0.00 0.00 90 1014.1
20260508064751 9 209 1.6 6.4 0.00 0.00 0.00 91 1014.1
20260508064252 9 209 3.2 6.4 0.00 0.00 0.00 91 1013.9
20260508063751 9 209 1.6 4.8 0.00 0.00 0.00 93 1013.9
20260508063250 8 209 3.2 4.8 0.00 0.00 0.00 93 1013.8
20260508062750 8 209 0.0 0.0 0.00 0.00 0.00 94 1013.9
20260508062250 8 209 0.0 0.0 0.00 0.00 0.00 94 1013.8
20260508062014 8 209 0.0 0.0 0.00 0.00 0.00 94 1013.7
20260508061251 7 209 0.0 0.0 0.00 0.00 0.00 93 1013.7
20260508060751 7 209 0.0 3.2 0.00 0.00 0.00 94 1013.7
20260508060250 7 209 0.0 3.2 0.00 0.00 0.00 93 1013.7
20260508055750 7 209 1.6 3.2 0.00 0.00 0.00 93 1013.6
20260508055256 7 209 0.0 4.8 0.00 0.00 0.00 93 1013.7
20260508054754 7 209 3.2 4.8 0.00 0.00 0.00 93 1013.5
20260508054255 6 209 1.6 4.8 0.00 0.00 0.00 93 1013.5
20260508053750 6 209 1.6 4.8 0.00 0.00 0.00 93 1013.5
20260508053250 6 209 3.2 4.8 0.00 0.00 0.00 93 1013.5
20260508052749 6 209 1.6 3.2 0.00 0.00 0.00 93 1013.4
20260508052249 6 209 1.6 3.2 0.00 0.00 0.00 93 1013.3
20260508051749 6 209 1.6 3.2 0.00 0.00 0.00 93 1013.3
20260508051249 6 221 1.6 3.2 0.00 0.00 0.00 93 1013.2
20260508050749 6 224 1.6 3.2 0.00 0.00 0.00 93 1013.1
20260508050302 6 224 3.2 4.8 0.00 0.00 0.00 93 1013.1
20260508045749 6 224 3.2 6.4 0.00 0.00 0.00 93 1013.2
20260508045248 6 224 3.2 6.4 0.00 0.00 0.00 93 1013.3
20260508044748 6 231 3.2 4.8 0.00 0.00 0.00 93 1013.1
20260508044248 6 231 3.2 4.8 0.00 0.00 0.00 92 1013.1
20260508043748 5 231 3.2 4.8 0.00 0.00 0.00 92 1013.2
20260508043248 5 231 3.2 4.8 0.00 0.00 0.00 92 1013.3
20260508042748 5 231 3.2 4.8 0.00 0.00 0.00 92 1013.2
20260508042249 5 231 3.2 4.8 0.00 0.00 0.00 91 1013.1
20260508041747 5 231 3.2 4.8 0.00 0.00 0.00 91 1013.1
20260508041249 5 231 1.6 4.8 0.00 0.00 0.00 91 1013.1
20260508040748 5 231 3.2 3.2 0.00 0.00 0.00 91 1013.1
20260508040248 5 200 3.2 3.2 0.00 0.00 0.00 91 1013.1
20260508035749 5 200 3.2 4.8 0.00 0.00 0.00 91 1013.1
20260508035248 5 200 3.2 4.8 0.00 0.00 0.00 90 1013.0
20260508034747 5 200 3.2 6.4 0.00 0.00 0.00 90 1013.0
20260508034513 5 200 3.2 6.4 0.00 0.00 0.00 90 1012.9
20260508033745 5 200 3.2 4.8 0.00 0.00 0.00 90 1013.1
20260508033246 5 200 3.2 4.8 0.00 0.00 0.00 90 1013.0
20260508032747 5 200 1.6 3.2 0.00 0.00 0.00 90 1013.0
20260508031746 5 200 1.6 3.2 0.00 0.00 0.00 90 1012.9
20260508031246 5 200 1.6 3.2 0.00 0.00 0.00 90 1012.8
20260508031014 5 200 3.2 3.2 0.00 0.00 0.00 89 1012.9
20260508030246 6 200 1.6 3.2 0.00 0.00 0.00 89 1012.8
20260508025745 6 200 1.6 3.2 0.00 0.00 0.00 89 1012.9
20260508025245 6 200 1.6 1.6 0.00 0.00 0.00 89 1012.9
20260508024745 6 200 0.0 3.2 0.00 0.00 0.00 88 1012.9
20260508024245 6 200 0.0 3.2 0.00 0.00 0.00 88 1012.9
20260508023745 6 200 1.6 3.2 0.00 0.00 0.00 88 1012.8
20260508023245 6 200 1.6 3.2 0.00 0.00 0.00 88 1012.8
20260508022746 6 200 1.6 3.2 0.00 0.00 0.00 87 1012.8
20260508022244 6 200 1.6 3.2 0.00 0.00 0.00 87 1012.8
20260508021744 7 200 1.6 3.2 0.00 0.00 0.00 86 1012.8
20260508021511 7 200 0.0 4.8 0.00 0.00 0.00 86 1012.9
20260508020743 7 200 1.6 4.8 0.00 0.00 0.00 86 1012.8
20260508020511 7 200 1.6 3.2 0.00 0.00 0.00 86 1012.8
20260508015744 7 200 1.6 4.8 0.00 0.00 0.00 86 1012.8
20260508015244 7 200 1.6 6.4 0.00 0.00 0.00 86 1012.8
20260508014744 7 200 3.2 6.4 0.00 0.00 0.00 86 1012.8
20260508014244 8 200 3.2 6.4 0.00 0.00 0.00 85 1012.8
20260508013744 8 200 3.2 6.4 0.00 0.00 0.00 85 1012.8
20260508013243 8 200 3.2 6.4 0.00 0.00 0.00 85 1012.8
20260508012744 8 200 3.2 4.8 0.00 0.00 0.00 84 1012.8
20260508012244 8 200 3.2 4.8 0.00 0.00 0.00 84 1012.8
20260508011743 8 200 3.2 6.4 0.00 0.00 0.00 84 1012.8
20260508011242 8 200 3.2 6.4 0.00 0.00 0.00 84 1012.8
20260508010743 8 200 3.2 6.4 0.00 0.00 0.00 84 1012.8
20260508010243 9 200 3.2 6.4 0.00 0.00 0.00 84 1012.9
20260508005743 9 200 4.8 6.4 0.00 0.00 0.00 84 1012.8
20260508005243 9 200 4.8 8.0 0.00 0.00 0.00 83 1012.8
20260508004744 9 200 4.8 8.0 0.00 0.00 0.00 83 1012.8
20260508004242 9 200 4.8 8.0 0.00 0.00 0.00 83 1012.8
20260508003743 9 202 4.8 8.0 0.00 0.00 0.00 83 1012.9
20260508003242 9 200 4.8 8.0 0.00 0.00 0.00 83 1012.9
20260508002742 9 200 4.8 9.7 0.00 0.00 0.00 83 1012.8
20260508002242 9 202 4.8 9.7 0.00 0.00 0.00 82 1012.9
20260508001742 9 200 6.4 9.7 0.00 0.00 0.00 82 1012.9
20260508001242 9 197 6.4 9.7 0.00 0.00 0.00 82 1013.0
20260508000742 10 197 6.4 9.7 0.00 0.00 0.00 82 1013.0
20260508000242 10 195 4.8 11.3 0.00 0.00 0.00 82 1013.0
20260507235741 10 200 6.4 11.3 0.00 0.00 0.00 82 1013.0
20260507235241 10 206 4.8 11.3 0.00 0.00 0.00 82 1013.0
20260507234741 10 207 6.4 11.3 0.00 0.00 0.00 82 1013.0
20260507233741 10 220 4.8 11.3 0.00 0.00 0.00 82 1013.0
20260507233241 10 182 4.8 11.3 0.00 0.00 0.00 82 1013.0
20260507232742 10 175 6.4 11.3 0.00 0.00 0.00 82 1013.0
20260507232241 10 180 6.4 9.7 0.00 0.00 0.00 82 1013.0
20260507231740 10 193 3.2 9.7 0.00 0.00 0.00 81 1013.1
20260507231241 10 195 4.8 9.7 0.00 0.00 0.00 81 1013.1
20260507230740 10 189 6.4 9.7 0.00 0.00 0.00 81 1013.0
20260507230240 10 196 4.8 9.7 0.00 0.00 0.00 81 1013.0
20260507225740 10 195 6.4 9.7 0.00 0.00 0.00 81 1013.0
20260507225242 10 196 4.8 9.7 0.00 0.00 0.00 81 1013.0
20260507224739 10 195 6.4 14.5 0.00 0.00 0.00 81 1013.0
20260507224239 10 180 8.0 14.5 0.00 0.00 0.00 81 1012.9
20260507223739 10 185 8.0 16.1 0.00 0.00 0.00 81 1012.9
20260507223239 10 168 6.4 16.1 0.00 0.00 0.00 80 1012.9
20260507223009 10 171 6.4 16.1 0.00 0.00 0.00 80 1012.9
20260507222239 10 164 8.0 16.1 0.00 0.00 0.00 80 1012.9
20260507222006 10 159 8.0 16.1 0.00 0.00 0.00 80 1012.9
20260507221238 10 165 4.8 17.7 0.00 0.00 0.00 80 1013.0
20260507220739 10 173 8.0 17.7 0.00 0.00 0.00 80 1013.0
20260507220240 10 176 6.4 17.7 0.00 0.00 0.00 80 1012.9
20260507215239 10 154 8.0 20.9 0.00 0.00 0.00 79 1012.9
20260507214739 10 165 9.7 20.9 0.00 0.00 0.00 79 1013.0
20260507214238 10 157 11.3 20.9 0.00 0.00 0.00 79 1013.0
20260507213738 10 157 8.0 17.7 0.00 0.00 0.00 79 1012.9
20260507213237 10 158 9.7 20.9 0.00 0.00 0.00 79 1013.0
20260507212738 10 140 8.0 20.9 0.00 0.00 0.00 78 1012.9
20260507212458 10 180 9.7 14.5 0.00 0.00 0.00 78 1012.9
20260507211736 11 151 6.4 16.1 0.00 0.00 0.00 78 1012.9
20260507211237 11 169 8.0 16.1 0.00 0.00 0.00 78 1012.9
20260507210738 11 161 8.0 20.9 0.00 0.00 0.00 77 1012.8
20260507210237 11 135 11.3 20.9 0.00 0.00 0.00 77 1012.8
20260507205737 11 165 4.8 19.3 0.00 0.00 0.00 77 1012.8
20260507205237 11 157 12.9 19.3 0.00 0.00 0.00 76 1012.7
20260507204737 11 148 8.0 19.3 0.00 0.00 0.00 76 1012.7
20260507203737 11 147 9.7 16.1 0.00 0.00 0.00 75 1012.7
20260507203236 11 159 8.0 16.1 0.00 0.00 0.00 74 1012.7
20260507202737 11 152 8.0 16.1 0.00 0.00 0.00 74 1012.7
20260507202236 11 141 6.4 14.5 0.00 0.00 0.00 74 1012.6
20260507201738 11 137 9.7 14.5 0.00 0.00 0.00 74 1012.6
20260507201236 11 158 9.7 14.5 0.00 0.00 0.00 74 1012.5
20260507200737 11 158 6.4 14.5 0.00 0.00 0.00 74 1012.4
20260507200503 11 151 6.4 14.5 0.00 0.00 0.00 73 1012.4
20260507195736 11 142 8.0 14.5 0.00 0.00 0.00 74 1012.3
20260507195238 11 165 8.0 14.5 0.00 0.00 0.00 74 1012.4
20260507194737 11 149 6.4 11.3 0.00 0.00 0.00 74 1012.4
20260507194458 11 149 6.4 11.3 0.00 0.00 0.00 74 1012.3
20260507193737 11 161 6.4 11.3 0.00 0.00 0.00 73 1012.2
20260507193237 11 151 6.4 11.3 0.00 0.00 0.00 74 1012.2
20260507192736 11 149 8.0 14.5 0.00 0.00 0.00 74 1012.1
20260507192236 11 140 8.0 14.5 0.00 0.00 0.00 73 1012.2
20260507191739 11 148 6.4 11.3 0.00 0.00 0.00 73 1012.1
20260507191236 11 144 6.4 11.3 0.00 0.00 0.00 74 1012.1
20260507190736 11 154 8.0 14.5 0.00 0.00 0.00 73 1012.1
20260507190236 11 151 6.4 14.5 0.00 0.00 0.00 73 1012.1
20260507185737 11 151 6.4 11.3 0.00 0.00 0.00 73 1012.0
20260507185237 12 154 6.4 14.5 0.00 0.00 0.00 73 1012.1
20260507184737 12 149 6.4 14.5 0.00 0.00 0.00 72 1012.0
20260507184236 12 144 6.4 14.5 0.00 0.00 0.00 72 1012.0
20260507183736 12 137 6.4 11.3 0.00 0.00 0.00 72 1012.0
20260507183237 12 144 4.8 14.5 0.00 0.00 0.00 72 1012.0
20260507182735 12 134 6.4 14.5 0.00 0.00 0.00 71 1012.0
20260507182235 12 131 8.0 14.5 0.00 0.00 0.00 70 1011.9
20260507181733 12 149 4.8 14.5 0.00 0.00 0.00 71 1012.0
20260507181234 12 149 6.4 16.1 0.00 0.00 0.00 70 1011.9
20260507180733 12 151 6.4 16.1 0.00 0.00 0.00 71 1011.9
20260507180233 12 151 6.4 11.3 0.00 0.00 0.00 71 1011.8
20260507175954 12 154 6.4 11.3 0.00 0.00 0.00 70 1011.9
20260507175233 12 148 6.4 11.3 0.00 0.00 0.00 70 1011.9
20260507174733 12 159 6.4 14.5 0.00 0.00 0.00 71 1011.9
20260507174233 12 157 6.4 14.5 0.00 0.00 0.00 71 1011.9
20260507173732 12 155 8.0 14.5 0.00 0.00 0.00 71 1011.9
20260507173232 12 168 6.4 14.5 0.00 0.00 0.00 71 1012.0
20260507172732 12 169 6.4 14.5 0.00 0.00 0.00 70 1011.9
20260507172232 13 164 8.0 11.3 0.00 0.00 0.00 69 1012.0
20260507171733 13 176 6.4 16.1 0.00 0.00 0.00 69 1011.9
20260507171232 13 149 9.7 16.1 0.00 0.00 0.00 69 1012.0
20260507170732 13 144 4.8 11.3 0.00 0.00 0.00 70 1012.0
20260507170232 13 137 6.4 11.3 0.00 0.00 0.00 72 1011.9
20260507165731 12 124 9.7 11.3 0.00 0.00 0.00 73 1011.8
20260507165231 12 140 6.4 11.3 0.00 0.00 0.00 74 1012.0
20260507164731 12 144 6.4 11.3 0.00 0.00 0.00 74 1012.0
20260507164231 11 152 4.8 8.0 0.00 0.00 0.00 75 1012.1
20260507163731 11 152 4.8 6.4 0.00 0.00 0.00 75 1012.1
20260507163452 11 152 3.2 8.0 0.00 0.00 0.00 75 1012.2
20260507162730 11 152 3.2 8.0 0.00 0.00 0.00 75 1012.2
20260507162231 11 152 3.2 6.4 0.00 0.00 0.00 75 1012.2
20260507161731 12 154 3.2 11.3 0.00 0.00 0.00 75 1012.2
20260507161456 12 152 4.8 11.3 0.00 0.00 0.00 74 1012.2
20260507160729 12 155 4.8 9.7 0.00 0.00 0.00 75 1012.2
20260507160230 12 158 4.8 9.7 0.00 0.00 0.00 74 1012.3
20260507155730 12 159 4.8 9.7 0.00 0.00 0.00 74 1012.3
20260507155230 12 159 4.8 8.0 0.00 0.00 0.00 74 1012.4
20260507154731 12 161 3.2 6.4 0.00 0.00 0.00 74 1012.3
20260507154230 12 161 3.2 8.0 0.00 0.00 0.00 74 1012.4
20260507153729 12 161 3.2 8.0 0.00 0.00 0.00 73 1012.4
20260507153230 12 161 4.8 8.0 0.00 0.00 0.00 73 1012.4
20260507152729 12 161 3.2 9.7 0.00 0.00 0.00 72 1012.4
20260507152229 12 158 8.0 11.3 0.00 0.00 0.00 71 1012.5
20260507151729 13 147 6.4 11.3 0.00 0.00 0.00 71 1012.6
20260507151229 13 169 3.2 9.7 0.00 0.00 0.00 71 1012.4
20260507150229 13 152 4.8 11.3 0.00 0.00 0.00 69 1012.5
20260507145728 13 127 6.4 11.3 0.00 0.00 0.00 69 1012.5
20260507145449 13 188 8.0 14.5 0.00 0.00 0.00 70 1012.6
20260507144728 13 186 6.4 14.5 0.00 0.00 0.00 71 1012.5
20260507144228 13 195 6.4 16.1 0.00 0.00 0.00 70 1012.6
20260507143728 13 189 9.7 16.1 0.00 0.00 0.00 70 1012.7
20260507143228 13 178 3.2 11.3 0.00 0.00 0.00 71 1012.6
20260507142728 13 154 8.0 17.7 0.00 0.00 0.00 70 1012.7
20260507142228 13 144 6.4 17.7 0.00 0.00 0.00 71 1012.8
20260507141733 13 161 8.0 17.7 0.00 0.00 0.00 70 1012.8
20260507141231 12 173 6.4 16.1 0.00 0.00 0.00 72 1012.9
20260507140733 12 140 6.4 16.1 0.00 0.00 0.00 72 1012.9
20260507140227 12 137 8.0 11.3 0.00 0.00 0.00 73 1013.0
20260507135727 12 196 8.0 11.3 0.00 0.00 0.00 75 1013.1
20260507135227 12 171 6.4 11.3 0.00 0.00 0.00 76 1013.0
20260507134729 12 165 3.2 11.3 0.00 0.00 0.00 76 1013.1
20260507134227 11 164 8.0 14.5 0.00 0.00 0.00 76 1013.1
20260507133726 11 141 9.7 14.5 0.00 0.00 0.00 77 1013.1
20260507133227 11 188 6.4 16.1 0.00 0.00 0.00 76 1013.2
20260507132726 11 169 4.8 16.1 0.00 0.00 0.00 76 1013.2
20260507132226 11 171 8.0 16.1 0.00 0.00 0.00 76 1013.2
20260507131727 11 179 6.4 16.1 0.00 0.00 0.00 77 1013.2
20260507131228 11 159 8.0 16.1 0.00 0.00 0.00 77 1013.3
20260507130951 11 176 6.4 14.5 0.00 0.00 0.00 77 1013.2
20260507130226 11 199 8.0 14.5 0.00 0.00 0.00 77 1013.2
20260507125726 11 180 9.7 14.5 0.00 0.00 0.00 79 1013.4
20260507125227 11 164 4.8 14.5 0.00 0.00 0.00 79 1013.2
20260507124726 11 189 4.8 14.5 0.00 0.00 0.00 79 1013.2
20260507124226 10 162 8.0 11.3 0.00 0.00 0.00 79 1013.3
20260507123726 10 161 6.4 11.3 0.00 0.00 0.00 80 1013.3
20260507123226 10 185 6.4 8.0 0.00 0.00 0.00 81 1013.3
20260507122952 10 180 4.8 9.7 0.00 0.00 0.00 81 1013.3
20260507122225 10 179 3.2 16.1 0.00 0.00 0.00 80 1013.4
20260507121725 10 183 6.4 16.1 0.00 0.00 0.00 80 1013.4
20260507121224 10 165 9.7 16.1 0.00 0.00 0.00 80 1013.5
20260507120724 10 178 8.0 17.7 0.00 0.00 0.00 80 1013.5
20260507120227 10 155 6.4 20.9 0.00 0.00 0.00 80 1013.6
20260507115726 10 214 9.7 20.9 0.00 0.00 0.00 80 1013.5
20260507115224 10 188 4.8 14.5 0.00 0.00 0.00 80 1013.6
20260507114724 10 157 4.8 14.5 0.00 0.00 0.00 80 1013.5
20260507114224 10 147 9.7 14.5 0.00 0.00 0.00 79 1013.5
20260507113724 10 193 6.4 16.1 0.00 0.00 0.00 79 1013.5
20260507113446 10 155 9.7 16.1 0.00 0.00 0.00 79 1013.6
20260507112723 10 199 9.7 19.3 0.00 0.00 0.00 80 1013.6
20260507112222 10 199 8.0 19.3 0.00 0.00 0.00 79 1013.6
20260507111723 10 151 11.3 19.3 0.00 0.00 0.00 79 1013.6
20260507111224 10 193 8.0 19.3 0.00 0.00 0.00 79 1013.6
20260507110723 11 202 8.0 16.1 0.00 0.00 0.00 79 1013.7
20260507110236 11 161 8.0 19.3 0.00 0.00 0.00 79 1013.7
20260507105723 11 182 8.0 19.3 0.00 0.00 0.00 79 1013.7
20260507105223 11 197 6.4 17.7 0.00 0.00 0.00 80 1013.8
20260507104722 11 190 8.0 17.7 0.00 0.00 0.00 81 1013.7
20260507104444 10 171 6.4 19.3 0.00 0.00 0.00 81 1013.7
20260507103944 10 152 9.7 19.3 0.00 0.00 0.00 82 1013.7
20260507103220 10 152 9.7 17.7 0.00 0.00 0.00 82 1013.8
20260507102720 10 148 8.0 16.1 0.00 0.00 0.00 83 1013.8
20260507102220 10 164 9.7 16.1 0.00 0.00 0.00 84 1013.7
20260507101720 10 179 8.0 14.5 0.00 0.00 0.00 84 1013.7
20260507101219 9 182 8.0 14.5 0.00 0.00 0.00 85 1013.7
20260507100719 9 180 6.4 14.5 0.00 0.00 0.00 85 1013.7
20260507100219 9 183 6.4 14.5 0.00 0.00 0.00 86 1013.7
20260507095718 9 151 8.0 14.5 0.00 0.00 0.00 86 1013.8
20260507095218 8 168 4.8 11.3 0.00 0.00 0.00 86 1013.8
20260507094718 8 168 6.4 11.3 0.00 0.00 0.00 86 1013.9
20260507094219 8 175 4.8 9.7 0.00 0.00 0.00 87 1013.7
20260507093718 8 188 6.4 8.0 0.00 0.00 0.00 87 1013.8
20260507093218 8 189 4.8 9.7 0.00 0.00 0.00 88 1013.9
20260507092942 8 193 6.4 9.7 0.00 0.00 0.00 88 1013.7
20260507092442 8 158 4.8 11.3 0.00 0.00 0.00 88 1013.7
20260507091718 7 155 4.8 11.3 0.00 0.00 0.00 89 1013.7
20260507091218 7 155 6.4 11.3 0.00 0.00 0.00 89 1013.7
20260507090718 7 186 6.4 11.3 0.00 0.00 0.00 89 1013.7
20260507090218 7 159 8.0 9.7 0.00 0.00 0.00 89 1013.7
20260507085717 7 161 4.8 6.4 0.00 0.00 0.00 89 1013.7
20260507085217 7 159 3.2 8.0 0.00 0.00 0.00 89 1013.8
20260507084941 7 159 6.4 8.0 0.00 0.00 0.00 89 1013.7
20260507084217 7 161 4.8 8.0 0.00 0.00 0.00 89 1013.7
20260507083717 7 154 4.8 9.7 0.00 0.00 0.00 89 1013.8
20260507083217 6 152 4.8 9.7 0.00 0.00 0.00 89 1013.8
20260507082714 6 152 4.8 9.7 0.00 0.00 0.00 89 1013.6
20260507082214 6 152 4.8 9.7 0.00 0.00 0.00 89 1013.7
20260507081937 6 154 3.2 9.7 0.00 0.00 0.00 89 1013.7